sat.trackr.live / text

‹ back to catalog

YAOGAN-36 03C

NORAD 54376 · 2022-160E

PAYLOAD ACTIVE UNKNOWN

§ Identity

Operator
Country
PRC
Launch date
2022-11-27
Launch site
XICLF
Launch vehicle
Mass (kg)
RCS (m²)

External: N2YO · Heavens-Above · Gunter

§ Orbital elements

Epoch: 2026-05-25T04:55:14.439936Z

Period
94.55 min
Inclination
35.0087°
Eccentricity
0.0006526
Mean motion
15.23055730 rev/d
Perigee alt
492.1 km
Apogee alt
501.1 km
Semi-major
6,874.8 km
B*
3.0285e-4
RAAN
124.0640°
Arg perigee
188.0425°
Mean anomaly
172.0185°
Rev number
19,454

§ Raw data

YAOGAN-36 03C1 54376U 22160E   26145.20502824  .00007281  00000+0  30285-3 0  99952 54376  35.0087 124.0640 0006526 188.0425 172.0185 15.23055730194542

JSON: /api/v1/satellites/54376 · /tle

For live sub-satellite position, see the globe view (requires WebGL).

§ Visibility from observer

Set your observer location to see the next 7 days of passes ≥ 10°. The values pass through the URL so the page stays shareable.

No JS? Fill the form by hand. The geolocation button needs JavaScript.